Time,TemperatureF,DewpointF,PressureIn,WindDirection,WindDirectionDegrees,WindSpeedMPH,WindSpeedGustMPH,Humidity,HourlyPrecipIn,Conditions,Clouds,dailyrainin,SoftwareType,DateUTC
2013-01-02 00:28:00,47.3,43.3,30.15,NNE,23,1.0,1.0,86,0.00,,SCT,0.00,WUHU21623XXSP,2013-01-01 22:28:00,
2013-01-02 01:28:00,46.9,43.5,30.15,North,0,3.2,3.2,88,0.00,,SCT,0.00,WUHU21623XXSP,2013-01-01 23:28:00,
2013-01-02 02:28:00,46.0,42.6,30.16,North,0,0.0,0.0,88,0.00,,SCT,0.00,WUHU21623XXSP,2013-01-02 00:28:00,
2013-01-02 03:28:00,45.0,41.6,30.16,NNE,23,1.4,1.4,88,0.00,,SCT,0.00,WUHU21623XXSP,2013-01-02 01:28:00,
2013-01-02 04:28:00,44.8,41.7,30.16,NE,45,2.8,2.8,89,0.00,,SCT,0.00,WUHU21623XXSP,2013-01-02 02:28:00,
2013-01-02 05:28:00,44.6,41.5,30.16,North,0,2.0,2.0,89,0.00,,SCT,0.00,WUHU21623XXSP,2013-01-02 03:28:00,
2013-01-02 06:28:00,44.1,40.7,30.18,NE,45,0.0,0.0,88,0.00,,SCT,0.00,WUHU21623XXSP,2013-01-02 04:28:00,
2013-01-02 07:28:00,44.8,41.7,30.19,NE,45,0.0,0.0,89,0.00,,SCT,0.00,WUHU21623XXSP,2013-01-02 05:28:00,
2013-01-02 08:28:00,45.0,41.6,30.19,North,0,0.8,0.8,88,0.00,,SCT,0.00,WUHU21623XXSP,2013-01-02 06:28:00,
2013-01-02 09:28:00,48.0,44.3,30.20,NNE,23,3.7,3.7,87,0.00,,SCT,0.00,WUHU21623XXSP,2013-01-02 07:28:00,
2013-01-02 09:49:00,50.5,44.6,30.21,North,0,0.0,0.0,80,0.00,,SCT,0.00,WUHU21623XXSP,2013-01-02 07:49:00,
2013-01-02 09:50:00,50.5,44.3,30.21,NNE,22,0.0,0.0,79,0.00,,SCT,0.00,WUHU21623XXSP,2013-01-02 07:50:00,
2013-01-02 09:55:00,50.9,44.0,30.21,NNE,22,0.0,3.4,77,0.00,,FEW,0.00,WUHU21623XXSP,2013-01-02 07:55:00,
2013-01-02 10:00:00,51.4,44.2,30.21,North,0,0.0,3.4,76,0.00,,FEW,0.00,WUHU21623XXSP,2013-01-02 08:00:00,
2013-01-02 10:05:00,52.0,44.7,30.22,North,0,0.0,2.0,76,0.00,,FEW,0.00,WUHU21623XXSP,2013-01-02 08:05:00,
2013-01-02 10:10:00,52.5,44.5,30.22,WNW,292,0.0,1.4,74,0.00,,FEW,0.00,WUHU21623XXSP,2013-01-02 08:10:00,
2013-01-02 10:15:00,53.1,44.4,30.22,NNE,22,0.0,0.0,72,0.00,,FEW,0.00,WUHU21623XXSP,2013-01-02 08:15:00,
2013-01-02 10:20:00,53.8,44.7,30.22,WNW,292,0.0,0.0,71,0.00,,FEW,0.00,WUHU21623XXSP,2013-01-02 08:20:00,
2013-01-02 10:25:00,54.0,44.6,30.22,WNW,292,0.0,0.0,70,0.00,,FEW,0.00,WUHU21623XXSP,2013-01-02 08:25:00,
2013-01-02 10:30:00,54.5,44.3,30.22,NW,315,0.0,0.0,68,0.00,,FEW,0.00,WUHU21623XXSP,2013-01-02 08:30:00,
2013-01-02 10:35:00,54.9,44.7,30.22,South,180,0.0,2.4,68,0.00,,FEW,0.00,WUHU21623XXSP,2013-01-02 08:35:00,
2013-01-02 10:40:00,55.6,44.9,30.23,SE,135,0.0,2.4,67,0.00,,FEW,0.00,WUHU21623XXSP,2013-01-02 08:40:00,
2013-01-02 10:45:00,55.8,44.7,30.22,West,270,0.0,1.4,66,0.00,,FEW,0.00,WUHU21623XXSP,2013-01-02 08:45:00,
2013-01-02 10:50:00,55.8,44.3,30.22,SSE,157,0.0,1.4,65,0.00,,FEW,0.00,WUHU21623XXSP,2013-01-02 08:50:00,
2013-01-02 10:55:00,55.8,44.3,30.23,West,270,0.0,1.2,65,0.00,,FEW,0.00,WUHU21623XXSP,2013-01-02 08:55:00,
2013-01-02 11:00:00,55.9,44.4,30.23,SSE,157,0.0,1.2,65,0.00,,FEW,0.00,WUHU21623XXSP,2013-01-02 09:00:00,
2013-01-02 11:05:00,56.3,44.4,30.23,SE,135,0.0,2.4,64,0.00,,FEW,0.00,WUHU21623XXSP,2013-01-02 09:05:00,
2013-01-02 11:10:00,56.7,45.2,30.23,South,180,0.0,2.4,65,0.00,,FEW,0.00,WUHU21623XXSP,2013-01-02 09:10:00,
2013-01-02 11:15:00,56.7,45.6,30.23,South,180,0.0,0.8,66,0.00,,FEW,0.00,WUHU21623XXSP,2013-01-02 09:15:00,
2013-01-02 11:20:00,56.3,44.8,30.22,SSW,202,0.0,2.4,65,0.00,,FEW,0.00,WUHU21623XXSP,2013-01-02 09:20:00,
2013-01-02 11:25:00,56.3,45.6,30.22,SSE,157,0.0,2.4,67,0.00,,FEW,0.00,WUHU21623XXSP,2013-01-02 09:25:00,
2013-01-02 11:30:00,56.3,45.2,30.22,SSW,202,3.0,8.9,66,0.00,,FEW,0.00,WUHU21623XXSP,2013-01-02 09:30:00,
2013-01-02 11:35:00,56.3,45.2,30.22,SSW,202,0.0,8.9,66,0.00,,FEW,0.00,WUHU21623XXSP,2013-01-02 09:35:00,
2013-01-02 11:40:00,56.3,45.2,30.22,NW,315,0.0,5.4,66,0.00,,FEW,0.00,WUHU21623XXSP,2013-01-02 09:40:00,
2013-01-02 11:45:00,55.8,45.5,30.22,SW,225,0.0,5.4,68,0.00,,FEW,0.00,WUHU21623XXSP,2013-01-02 09:45:00,
2013-01-02 11:50:00,56.1,45.8,30.22,North,0,0.0,8.4,68,0.00,,FEW,0.00,WUHU21623XXSP,2013-01-02 09:50:00,
2013-01-02 11:55:00,56.3,45.6,30.22,NW,315,0.0,8.4,67,0.00,,FEW,0.00,WUHU21623XXSP,2013-01-02 09:55:00,
2013-01-02 12:00:00,56.3,45.6,30.22,WSW,247,0.0,6.4,67,0.00,,FEW,0.00,WUHU21623XXSP,2013-01-02 10:00:00,
2013-01-02 12:05:00,56.3,45.6,30.22,SSE,157,0.0,6.6,67,0.00,,FEW,0.00,WUHU21623XXSP,2013-01-02 10:05:00,
2013-01-02 12:10:00,57.0,46.3,30.22,WSW,247,1.4,6.6,67,0.00,,FEW,0.00,WUHU21623XXSP,2013-01-02 10:10:00,
2013-01-02 12:15:00,57.7,46.6,30.22,SSE,157,0.0,5.4,66,0.00,,FEW,0.00,WUHU21623XXSP,2013-01-02 10:15:00,
2013-01-02 12:20:00,57.6,45.6,30.22,SW,225,0.0,6.2,64,0.00,,FEW,0.00,WUHU21623XXSP,2013-01-02 10:20:00,
2013-01-02 12:25:00,57.7,45.7,30.21,South,180,0.0,6.2,64,0.00,,FEW,0.00,WUHU21623XXSP,2013-01-02 10:25:00,
2013-01-02 12:30:00,57.9,45.9,30.21,SE,135,2.0,9.1,64,0.00,,FEW,0.00,WUHU21623XXSP,2013-01-02 10:30:00,
2013-01-02 12:35:00,57.9,45.9,30.21,West,270,0.0,9.1,64,0.00,,FEW,0.00,WUHU21623XXSP,2013-01-02 10:35:00,
2013-01-02 12:40:00,57.6,45.6,30.21,SW,225,0.0,9.1,64,0.00,,FEW,0.00,WUHU21623XXSP,2013-01-02 10:40:00,
2013-01-02 12:45:00,57.7,46.2,30.21,SW,225,0.0,4.0,65,0.00,,FEW,0.00,WUHU21623XXSP,2013-01-02 10:45:00,
2013-01-02 12:50:00,57.7,45.3,30.21,SSE,157,1.4,3.2,63,0.00,,FEW,0.00,WUHU21623XXSP,2013-01-02 10:50:00,
2013-01-02 12:55:00,58.5,45.7,30.21,SSE,157,1.8,3.2,62,0.00,,FEW,0.00,WUHU21623XXSP,2013-01-02 10:55:00,
2013-01-02 13:00:00,57.9,44.7,30.21,SSW,202,2.8,5.9,61,0.00,,FEW,0.00,WUHU21623XXSP,2013-01-02 11:00:00,
2013-01-02 13:05:00,57.9,45.5,30.20,SSE,157,0.0,6.6,63,0.00,,FEW,0.00,WUHU21623XXSP,2013-01-02 11:05:00,
2013-01-02 13:10:00,57.9,45.5,30.20,SSW,202,1.4,6.6,63,0.00,,FEW,0.00,WUHU21623XXSP,2013-01-02 11:10:00,
2013-01-02 13:15:00,57.9,45.5,30.20,SSE,157,0.0,6.9,63,0.00,,FEW,0.00,WUHU21623XXSP,2013-01-02 11:15:00,
2013-01-02 13:20:00,57.7,45.3,30.20,West,270,0.0,6.9,63,0.00,,FEW,0.00,WUHU21623XXSP,2013-01-02 11:20:00,
2013-01-02 13:25:00,57.6,45.2,30.20,South,180,0.8,5.4,63,0.00,,FEW,0.00,WUHU21623XXSP,2013-01-02 11:25:00,
2013-01-02 13:31:00,57.7,45.3,30.20,South,180,4.2,5.4,63,0.00,,FEW,0.00,WUHU21623XXSP,2013-01-02 11:31:00,
2013-01-02 13:36:00,57.9,44.7,30.20,South,180,3.2,6.2,61,0.00,,FEW,0.00,WUHU21623XXSP,2013-01-02 11:36:00,
2013-01-02 13:41:00,57.4,43.7,30.19,SSE,157,0.0,6.2,60,0.00,,FEW,0.00,WUHU21623XXSP,2013-01-02 11:41:00,
2013-01-02 13:46:00,57.6,43.9,30.19,ESE,112,0.0,5.2,60,0.00,,FEW,0.00,WUHU21623XXSP,2013-01-02 11:46:00,
2013-01-02 13:51:00,57.9,44.7,30.19,SSW,202,0.0,5.2,61,0.00,,FEW,0.00,WUHU21623XXSP,2013-01-02 11:51:00,
2013-01-02 13:56:00,57.7,44.9,30.19,WSW,247,3.2,3.2,62,0.00,,FEW,0.00,WUHU21623XXSP,2013-01-02 11:56:00,
2013-01-02 14:01:00,57.6,44.8,30.19,South,180,1.0,5.6,62,0.00,,FEW,0.00,WUHU21623XXSP,2013-01-02 12:01:00,
2013-01-02 14:06:00,57.6,44.8,30.19,SW,225,0.0,5.6,62,0.00,,FEW,0.00,WUHU21623XXSP,2013-01-02 12:06:00,
2013-01-02 14:11:00,57.7,44.9,30.19,SW,225,1.0,3.0,62,0.00,,FEW,0.00,WUHU21623XXSP,2013-01-02 12:11:00,
2013-01-02 14:16:00,57.7,44.9,30.19,South,180,2.2,4.0,62,0.00,,FEW,0.00,WUHU21623XXSP,2013-01-02 12:16:00,
2013-01-02 14:21:00,57.7,44.9,30.19,WSW,247,0.0,4.7,62,0.00,,FEW,0.00,WUHU21623XXSP,2013-01-02 12:21:00,
2013-01-02 14:26:00,57.7,44.9,30.19,SSW,202,1.8,6.6,62,0.00,,FEW,0.00,WUHU21623XXSP,2013-01-02 12:26:00,
2013-01-02 14:31:00,57.9,45.1,30.19,South,180,0.8,6.6,62,0.00,,FEW,0.00,WUHU21623XXSP,2013-01-02 12:31:00,
2013-01-02 14:36:00,57.9,44.7,30.19,SSW,202,0.0,7.4,61,0.00,,FEW,0.00,WUHU21623XXSP,2013-01-02 12:36:00,
2013-01-02 14:41:00,58.1,44.8,30.19,South,180,6.6,7.4,61,0.00,,FEW,0.00,WUHU21623XXSP,2013-01-02 12:41:00,
2013-01-02 14:46:00,58.1,44.8,30.20,SSW,202,0.0,6.6,61,0.00,,FEW,0.00,WUHU21623XXSP,2013-01-02 12:46:00,
2013-01-02 14:51:00,58.1,44.4,30.20,SSE,157,2.2,6.6,60,0.00,,FEW,0.00,WUHU21623XXSP,2013-01-02 12:51:00,
2013-01-02 14:56:00,58.3,44.6,30.20,SW,225,0.0,5.4,60,0.00,,FEW,0.00,WUHU21623XXSP,2013-01-02 12:56:00,
2013-01-02 15:01:00,58.5,44.3,30.20,WSW,247,1.8,5.4,59,0.00,,FEW,0.00,WUHU21623XXSP,2013-01-02 13:01:00,
2013-01-02 15:06:00,58.3,44.1,30.20,SSE,157,0.0,4.9,59,0.00,,FEW,0.00,WUHU21623XXSP,2013-01-02 13:06:00,
2013-01-02 15:11:00,58.1,44.0,30.20,SSW,202,3.7,5.6,59,0.00,,FEW,0.00,WUHU21623XXSP,2013-01-02 13:11:00,
2013-01-02 15:16:00,58.3,44.6,30.20,WNW,292,0.0,7.2,60,0.00,,FEW,0.00,WUHU21623XXSP,2013-01-02 13:16:00,
2013-01-02 15:21:00,58.1,44.0,30.20,South,180,4.2,7.2,59,0.00,,FEW,0.00,WUHU21623XXSP,2013-01-02 13:21:00,
2013-01-02 15:26:00,58.1,44.4,30.20,WNW,292,0.0,6.9,60,0.00,,FEW,0.00,WUHU21623XXSP,2013-01-02 13:26:00,
2013-01-02 15:31:00,58.3,45.0,30.20,SSW,202,0.0,6.2,61,0.00,,FEW,0.00,WUHU21623XXSP,2013-01-02 13:31:00,
2013-01-02 15:36:00,58.1,44.4,30.20,South,180,2.8,8.4,60,0.00,,FEW,0.00,WUHU21623XXSP,2013-01-02 13:36:00,
2013-01-02 15:41:00,58.1,44.4,30.20,SSE,157,1.4,8.4,60,0.00,,FEW,0.00,WUHU21623XXSP,2013-01-02 13:41:00,
2013-01-02 15:46:00,58.1,44.4,30.20,NNW,337,0.0,4.9,60,0.00,,FEW,0.00,WUHU21623XXSP,2013-01-02 13:46:00,
2013-01-02 15:51:00,57.9,44.2,30.21,WSW,247,0.0,6.2,60,0.00,,FEW,0.00,WUHU21623XXSP,2013-01-02 13:51:00,
2013-01-02 15:56:00,58.1,44.4,30.21,SSW,202,1.8,6.2,60,0.00,,FEW,0.00,WUHU21623XXSP,2013-01-02 13:56:00,
2013-01-02 16:01:00,57.9,44.7,30.21,SSW,202,2.0,5.2,61,0.00,,FEW,0.00,WUHU21623XXSP,2013-01-02 14:01:00,
2013-01-02 16:06:00,57.9,45.1,30.21,WSW,247,0.0,5.2,62,0.00,,FEW,0.00,WUHU21623XXSP,2013-01-02 14:06:00,
2013-01-02 16:11:00,57.7,44.9,30.21,SE,135,0.0,5.4,62,0.00,,FEW,0.00,WUHU21623XXSP,2013-01-02 14:11:00,
2013-01-02 16:16:00,57.7,44.9,30.21,WSW,247,1.8,5.4,62,0.00,,FEW,0.00,WUHU21623XXSP,2013-01-02 14:16:00,
2013-01-02 16:21:00,57.6,45.2,30.21,South,180,0.0,4.7,63,0.00,,FEW,0.00,WUHU21623XXSP,2013-01-02 14:21:00,
2013-01-02 16:26:00,57.4,45.0,30.21,West,270,0.0,4.7,63,0.00,,FEW,0.00,WUHU21623XXSP,2013-01-02 14:26:00,
2013-01-02 16:31:00,57.2,44.8,30.22,SW,225,0.0,4.0,63,0.00,,FEW,0.00,WUHU21623XXSP,2013-01-02 14:31:00,
2013-01-02 16:36:00,56.8,44.9,30.21,SSW,202,0.0,4.0,64,0.00,,FEW,0.00,WUHU21623XXSP,2013-01-02 14:36:00,
2013-01-02 16:41:00,56.8,45.3,30.21,WSW,247,1.4,2.8,65,0.00,,FEW,0.00,WUHU21623XXSP,2013-01-02 14:41:00,
2013-01-02 16:46:00,56.7,45.2,30.22,SSE,157,0.0,3.7,65,0.00,,FEW,0.00,WUHU21623XXSP,2013-01-02 14:46:00,
2013-01-02 16:51:00,56.3,46.8,30.22,South,180,0.0,3.7,70,0.00,,FEW,0.00,WUHU21623XXSP,2013-01-02 14:51:00,
2013-01-02 16:56:00,56.1,47.3,30.22,SSW,202,0.0,3.4,72,0.00,,FEW,0.00,WUHU21623XXSP,2013-01-02 14:56:00,
2013-01-02 17:01:00,56.1,47.7,30.22,SW,225,0.0,3.4,73,0.00,,FEW,0.00,WUHU21623XXSP,2013-01-02 15:01:00,
2013-01-02 17:06:00,55.8,47.7,30.22,SSW,202,1.0,5.6,74,0.00,,FEW,0.00,WUHU21623XXSP,2013-01-02 15:06:00,
2013-01-02 17:11:00,55.6,47.5,30.22,SSW,202,0.0,3.2,74,0.00,,FEW,0.00,WUHU21623XXSP,2013-01-02 15:11:00,
2013-01-02 17:16:00,55.0,47.3,30.22,SW,225,0.0,3.2,75,0.00,,FEW,0.00,WUHU21623XXSP,2013-01-02 15:16:00,
2013-01-02 17:21:00,54.9,47.9,30.23,SSW,202,0.0,0.0,77,0.00,,FEW,0.00,WUHU21623XXSP,2013-01-02 15:21:00,
2013-01-02 17:26:00,54.3,47.6,30.23,SSW,202,0.0,0.0,78,0.00,,FEW,0.00,WUHU21623XXSP,2013-01-02 15:26:00,
2013-01-02 17:31:00,54.3,48.3,30.23,SW,225,0.0,0.0,80,0.00,,FEW,0.00,WUHU21623XXSP,2013-01-02 15:31:00,
2013-01-02 17:36:00,54.1,48.1,30.23,SSW,202,0.0,0.0,80,0.00,,FEW,0.00,WUHU21623XXSP,2013-01-02 15:36:00,
2013-01-02 17:41:00,54.1,48.1,30.23,SW,225,0.0,0.0,80,0.00,,FEW,0.00,WUHU21623XXSP,2013-01-02 15:41:00,
2013-01-02 17:46:00,54.1,48.4,30.23,SW,225,0.0,0.0,81,0.00,,FEW,0.00,WUHU21623XXSP,2013-01-02 15:46:00,
2013-01-02 17:51:00,54.3,48.6,30.24,SSW,202,0.0,0.0,81,0.00,,FEW,0.00,WUHU21623XXSP,2013-01-02 15:51:00,
2013-01-02 17:56:00,54.1,48.4,30.24,SW,225,0.0,0.0,81,0.00,,FEW,0.00,WUHU21623XXSP,2013-01-02 15:56:00,
2013-01-02 18:01:00,54.0,48.0,30.24,SW,225,0.0,0.0,80,0.00,,FEW,0.00,WUHU21623XXSP,2013-01-02 16:01:00,
2013-01-02 18:06:00,53.8,47.8,30.24,SW,225,0.0,0.0,80,0.00,,FEW,0.00,WUHU21623XXSP,2013-01-02 16:06:00,
2013-01-02 18:11:00,53.8,47.8,30.24,NW,315,0.0,0.0,80,0.00,,FEW,0.00,WUHU21623XXSP,2013-01-02 16:11:00,
2013-01-02 18:16:00,53.4,47.4,30.24,NW,315,0.0,0.0,80,0.00,,FEW,0.00,WUHU21623XXSP,2013-01-02 16:16:00,
2013-01-02 18:21:00,53.2,47.6,30.24,NW,315,0.0,0.0,81,0.00,,FEW,0.00,WUHU21623XXSP,2013-01-02 16:21:00,
2013-01-02 18:26:00,52.9,47.3,30.25,NW,315,0.0,0.0,81,0.00,,FEW,0.00,WUHU21623XXSP,2013-01-02 16:26:00,
2013-01-02 18:31:00,52.7,47.1,30.25,North,0,0.0,0.0,81,0.00,,FEW,0.00,WUHU21623XXSP,2013-01-02 16:31:00,
2013-01-02 18:36:00,52.7,47.4,30.25,North,0,0.0,0.0,82,0.00,,FEW,0.00,WUHU21623XXSP,2013-01-02 16:36:00,
2013-01-02 18:41:00,52.5,47.8,30.25,North,0,0.0,0.0,84,0.00,,FEW,0.00,WUHU21623XXSP,2013-01-02 16:41:00,
2013-01-02 18:46:00,52.3,47.6,30.25,North,0,0.0,0.0,84,0.00,,FEW,0.00,WUHU21623XXSP,2013-01-02 16:46:00,
2013-01-02 18:51:00,52.2,47.5,30.25,North,0,0.0,0.0,84,0.00,,FEW,0.00,WUHU21623XXSP,2013-01-02 16:51:00,
2013-01-02 18:56:00,52.2,47.8,30.25,North,0,0.0,0.0,85,0.00,,FEW,0.00,WUHU21623XXSP,2013-01-02 16:56:00,
2013-01-02 19:01:00,52.0,47.6,30.26,NNE,22,0.0,0.0,85,0.00,,FEW,0.00,WUHU21623XXSP,2013-01-02 17:01:00,
2013-01-02 19:06:00,51.6,47.2,30.26,NNE,22,0.0,0.0,85,0.00,,FEW,0.00,WUHU21623XXSP,2013-01-02 17:06:00,
2013-01-02 19:11:00,51.4,47.3,30.26,North,0,0.0,2.4,86,0.00,,FEW,0.00,WUHU21623XXSP,2013-01-02 17:11:00,
2013-01-02 19:16:00,51.4,47.3,30.26,NNE,22,0.0,2.4,86,0.00,,FEW,0.00,WUHU21623XXSP,2013-01-02 17:16:00,
2013-01-02 19:21:00,51.4,47.6,30.27,North,0,0.0,0.0,87,0.00,,FEW,0.00,WUHU21623XXSP,2013-01-02 17:21:00,
2013-01-02 19:26:00,51.4,47.6,30.27,North,0,0.0,0.0,87,0.00,,FEW,0.00,WUHU21623XXSP,2013-01-02 17:26:00,
2013-01-02 19:31:00,51.4,47.9,30.27,NNE,22,0.0,0.0,88,0.00,,FEW,0.00,WUHU21623XXSP,2013-01-02 17:31:00,
2013-01-02 19:36:00,51.8,47.7,30.27,NNE,22,0.0,0.0,86,0.00,,FEW,0.00,WUHU21623XXSP,2013-01-02 17:36:00,
2013-01-02 19:41:00,52.2,48.7,30.27,North,0,0.0,0.0,88,0.00,,FEW,0.00,WUHU21623XXSP,2013-01-02 17:41:00,
2013-01-02 19:46:00,52.2,48.7,30.27,NNE,22,0.0,0.0,88,0.00,,FEW,0.00,WUHU21623XXSP,2013-01-02 17:46:00,
2013-01-02 19:51:00,52.2,48.7,30.27,NNE,22,0.0,0.0,88,0.00,,FEW,0.00,WUHU21623XXSP,2013-01-02 17:51:00,
2013-01-02 19:56:00,52.0,48.5,30.27,NNE,22,0.0,0.0,88,0.00,,FEW,0.00,WUHU21623XXSP,2013-01-02 17:56:00,
2013-01-02 20:01:00,52.0,48.5,30.27,NNE,22,0.0,0.0,88,0.00,,FEW,0.00,WUHU21623XXSP,2013-01-02 18:01:00,
2013-01-02 20:06:00,52.0,48.5,30.28,North,0,0.0,0.0,88,0.00,,FEW,0.00,WUHU21623XXSP,2013-01-02 18:06:00,
2013-01-02 20:11:00,51.8,48.3,30.28,North,0,0.0,1.8,88,0.00,,FEW,0.00,WUHU21623XXSP,2013-01-02 18:11:00,
2013-01-02 20:16:00,51.4,47.9,30.28,NNE,22,0.0,1.8,88,0.00,,FEW,0.00,WUHU21623XXSP,2013-01-02 18:16:00,
2013-01-02 20:21:00,51.4,47.6,30.28,NE,45,0.0,1.0,87,0.00,,FEW,0.00,WUHU21623XXSP,2013-01-02 18:21:00,
2013-01-02 20:26:00,51.4,47.6,30.28,North,0,0.0,2.2,87,0.00,,FEW,0.00,WUHU21623XXSP,2013-01-02 18:26:00,
2013-01-02 20:31:00,51.3,47.5,30.28,NE,45,0.0,2.8,87,0.00,,FEW,0.00,WUHU21623XXSP,2013-01-02 18:31:00,
2013-01-02 20:36:00,51.4,47.6,30.28,NNE,22,0.0,2.8,87,0.00,,FEW,0.00,WUHU21623XXSP,2013-01-02 18:36:00,
2013-01-02 20:41:00,51.4,47.3,30.29,NNE,22,0.0,2.2,86,0.00,,FEW,0.00,WUHU21623XXSP,2013-01-02 18:41:00,
2013-01-02 20:46:00,51.4,47.3,30.29,ENE,67,0.0,3.4,86,0.00,,FEW,0.00,WUHU21623XXSP,2013-01-02 18:46:00,
2013-01-02 20:51:00,51.4,47.3,30.29,North,0,0.0,4.0,86,0.00,,FEW,0.00,WUHU21623XXSP,2013-01-02 18:51:00,
2013-01-02 20:56:00,51.4,47.0,30.29,NNE,22,0.0,4.0,85,0.00,,FEW,0.00,WUHU21623XXSP,2013-01-02 18:56:00,
2013-01-02 21:01:00,51.4,47.0,30.29,NE,45,0.0,3.0,85,0.00,,FEW,0.00,WUHU21623XXSP,2013-01-02 19:01:00,
2013-01-02 21:06:00,51.4,47.0,30.29,NNE,22,0.0,3.0,85,0.00,,FEW,0.00,WUHU21623XXSP,2013-01-02 19:06:00,
2013-01-02 21:11:00,51.4,47.0,30.29,North,0,0.0,2.2,85,0.00,,FEW,0.00,WUHU21623XXSP,2013-01-02 19:11:00,
2013-01-02 21:16:00,51.3,46.9,30.29,NNE,22,0.0,1.4,85,0.00,,FEW,0.00,WUHU21623XXSP,2013-01-02 19:16:00,
2013-01-02 21:21:00,51.3,46.9,30.29,NNE,22,0.0,2.8,85,0.00,,FEW,0.00,WUHU21623XXSP,2013-01-02 19:21:00,
2013-01-02 21:26:00,51.3,46.9,30.29,North,0,0.0,3.7,85,0.00,,FEW,0.00,WUHU21623XXSP,2013-01-02 19:26:00,
2013-01-02 21:31:00,51.3,46.9,30.29,North,0,0.0,3.7,85,0.00,,FEW,0.00,WUHU21623XXSP,2013-01-02 19:31:00,
2013-01-02 21:36:00,51.3,46.9,30.29,NW,315,0.0,1.4,85,0.00,,FEW,0.00,WUHU21623XXSP,2013-01-02 19:36:00,
2013-01-02 21:41:00,51.1,46.7,30.29,NNE,22,2.2,2.2,85,0.00,,FEW,0.00,WUHU21623XXSP,2013-01-02 19:41:00,
2013-01-02 21:46:00,50.9,46.5,30.29,NNE,22,0.0,2.2,85,0.00,,FEW,0.00,WUHU21623XXSP,2013-01-02 19:46:00,
2013-01-02 21:51:00,50.9,46.5,30.29,NNE,22,0.0,2.0,85,0.00,,FEW,0.00,WUHU21623XXSP,2013-01-02 19:51:00,
2013-01-02 21:56:00,50.7,46.7,30.29,NNE,22,0.0,0.0,86,0.00,,FEW,0.00,WUHU21623XXSP,2013-01-02 19:56:00,
2013-01-02 22:01:00,50.9,46.8,30.29,NNE,22,0.0,0.0,86,0.00,,FEW,0.00,WUHU21623XXSP,2013-01-02 20:01:00,
2013-01-02 22:06:00,50.9,46.8,30.30,North,0,0.0,0.0,86,0.00,,FEW,0.00,WUHU21623XXSP,2013-01-02 20:06:00,
2013-01-02 22:11:00,50.9,47.1,30.29,NNW,337,0.0,1.2,87,0.00,,FEW,0.00,WUHU21623XXSP,2013-01-02 20:11:00,
2013-01-02 22:16:00,50.9,47.1,30.30,North,0,0.0,1.2,87,0.00,,FEW,0.00,WUHU21623XXSP,2013-01-02 20:16:00,
2013-01-02 22:21:00,50.9,47.1,30.30,North,0,0.0,2.2,87,0.00,,FEW,0.00,WUHU21623XXSP,2013-01-02 20:21:00,
2013-01-02 22:26:00,50.7,47.2,30.30,NNE,22,0.0,2.8,88,0.00,,FEW,0.00,WUHU21623XXSP,2013-01-02 20:26:00,
2013-01-02 22:31:00,50.5,47.1,30.30,North,0,1.8,3.7,88,0.00,,FEW,0.00,WUHU21623XXSP,2013-01-02 20:31:00,
2013-01-02 22:36:00,50.5,47.1,30.30,North,0,0.0,3.7,88,0.00,,FEW,0.00,WUHU21623XXSP,2013-01-02 20:36:00,
2013-01-02 23:28:00,49.8,46.4,30.31,North,0,2.8,2.8,88,0.00,,SCT,0.00,WUHU21623XXSP,2013-01-02 21:28:00,